This is the latest recevied weather packets stored in our database for station/object DL5ARK. If no packets are shown the sender has not sent any weather packets the latest 1 day(s).
| Time | Temp. | Humidity | Pressure | Rain* | Wind** | Luminosity | Snow |
|---|---|---|---|---|---|---|---|
| 1836274689 | 8.33° C | 83% | 1014.1 hPa | 0 mm | 0 m/s | - | - |
| 1836274509 | 8.33° C | 83% | 1014.4 hPa | 0 mm | 0 m/s | - | - |
| 1836274482 | 8.33° C | 83% | 1013.8 hPa | 0 mm | 0 m/s | - | - |
| 1836274298 | 8.33° C | 83% | 1014.1 hPa | 0 mm | 0 m/s | - | - |
| 1836274148 | 8.33° C | 83% | 1014.1 hPa | 0 mm | 0 m/s | - | - |
| 1836274119 | 8.89° C | 83% | 1014.1 hPa | 0 mm | 0 m/s | - | - |
| 1836273968 | 8.33° C | 82% | 1014.4 hPa | 0 mm | 0 m/s | - | - |
| 1778024207 | 11.67° C | 86% | 993.4 hPa | 0 mm | 0.45 m/s, 180° | - | - |
| 1778024030 | 11.67° C | 86% | 993.4 hPa | 0 mm | 0.45 m/s, 180° | - | - |
| 1778023848 | 11.67° C | 86% | 993.4 hPa | 0 mm | 0.45 m/s, 180° | - | - |
| 1778023668 | 11.67° C | 86% | 993.4 hPa | 0 mm | 1.34 m/s, 180° | - | - |
| 1778023488 | 11.67° C | 86% | 993.4 hPa | 0 mm | 1.79 m/s, 180° | - | - |
| 1778023307 | 11.67° C | 86% | 993.4 hPa | 0 mm | 0.89 m/s, 337° | - | - |
| 1778023128 | 11.67° C | 85% | 993.4 hPa | 0 mm | 2.24 m/s, 225° | - | - |
| 1778022948 | 11.67° C | 85% | 993.4 hPa | 0 mm | 0.89 m/s, 180° | - | - |
| 1778022768 | 11.67° C | 85% | 993.4 hPa | 0 mm | 1.34 m/s, 202° | - | - |
| 1778022587 | 11.67° C | 85% | 993.4 hPa | 0 mm | 1.79 m/s, 202° | - | - |
| 1778022407 | 11.67° C | 85% | 993.1 hPa | 0 mm | 1.34 m/s, 225° | - | - |
| 1778022048 | 11.67° C | 85% | 992.9 hPa | 0 mm | 0 m/s | - | - |
| 1778021868 | 11.67° C | 85% | 992.9 hPa | 0 mm | 0 m/s | - | - |
| 1778021688 | 11.67° C | 85% | 992.9 hPa | 0 mm | 0.89 m/s, 247° | - | - |
| 1778021507 | 11.67° C | 85% | 992.9 hPa | 0 mm | 0.45 m/s, 247° | - | - |
| 1778021328 | 11.67° C | 86% | 992.9 hPa | 0 mm | 0.89 m/s, 225° | - | - |
| 1778020967 | 11.67° C | 85% | 993.1 hPa | 0 mm | 0.45 m/s, 247° | - | - |
| 1778020788 | 11.67° C | 85% | 992.9 hPa | 0 mm | 1.79 m/s, 337° | - | - |
* Rain latest hour (hover to see other rain measurements)
** Current wind speed in m/s (hover to see current wind gust speed)